Location: Vihti�l�
(61.3833°N, 23.0667°E)
Time: 04:28:07
(UTC+00:00)

SJ-12 - Pass Details

Date: 29 November 2020
Orbit: 569 x 584 km, 97.7° (Epoch: 19 January)

Event Time Altitude Azimuth Distance (km) Brightness Sun altitude
Rises 04:12:43 0° 16° (NNE) 2,794 7.5 -19.2°
Reaches altitude 10° 04:14:53 10° 15° (NNE) 1,890 6.6 -19.0°
Maximum altitude 04:18:58 78° 291° (WNW) 593 3.7 -18.5°
Drops below altitude 10° 04:23:02 10° 205° (SSW) 1,874 6.4 -18.0°
Sets 04:25:10 0° 204° (SSW) 2,768 7.3 -17.7°
